When you browse on this site, cookies collect data to enhance your experience and personalize the content and advertising you see.
Visit our Privacy Policy to learn more. By continuing to use the site, you agree to this use of cookies and data.

Stündliche Wetter My Tho

Heute, 7 Juli, Dienstag

Zeit Temperatur Niederschläge Wind Luftdruck Luftfeuchtigkeit
00:00 +25°C° 0 mm 0 m/S 756 mmHg 93%
01:00 +24°C° 0 mm 0 m/S 755 mmHg 93%
02:00 +26°C° 0 mm 1 m/S 755 mmHg 93%
03:00 +26°C° 0 mm 1 m/S 755 mmHg 93%
04:00 +26°C° 0 mm 1 m/S 755 mmHg 93%
05:00 +27°C° 0 mm 1 m/S 755 mmHg 91%
06:00 +27°C° 0 mm 1 m/S 756 mmHg 90%
07:00 +26°C° 0 mm 0 m/S 756 mmHg 88%
08:00 +30°C° 0 mm 1 m/S 756 mmHg 80%
09:00 +31°C° 0 mm 1 m/S 756 mmHg 72%
10:00 +34°C° 0 mm 2 m/S 756 mmHg 64%
11:00 +34°C° 0 mm 2 m/S 756 mmHg 64%
12:00 +34°C° 0 mm 2 m/S 756 mmHg 63%
13:00 +35°C° 0 mm 2 m/S 755 mmHg 62%
14:00 +34°C° 0.1 mm 3 m/S 755 mmHg 63%
15:00 +34°C° 0.1 mm 3 m/S 755 mmHg 64%
16:00 +34°C° 0.1 mm 3 m/S 754 mmHg 64%
17:00 +31°C° 0 mm 3 m/S 754 mmHg 70%
18:00 +30°C° 0 mm 2 m/S 755 mmHg 76%
19:00 +29°C° 0 mm 2 m/S 755 mmHg 81%
20:00 +28°C° 0 mm 2 m/S 756 mmHg 83%
21:00 +28°C° 0 mm 1 m/S 756 mmHg 84%
22:00 +27°C° 0 mm 1 m/S 757 mmHg 86%
23:00 +27°C° 0 mm 1 m/S 757 mmHg 87%

Morgen, 8 Juli, Mittwoch

Zeit Temperatur Niederschläge Wind Luftdruck Luftfeuchtigkeit
00:00 +27°C° 0 mm 1 m/S 756 mmHg 88%
01:00 +25°C° 0 mm 0 m/S 756 mmHg 89%
02:00 +25°C° 0 mm 0 m/S 756 mmHg 89%
03:00 +25°C° 0 mm 0 m/S 756 mmHg 90%
04:00 +25°C° 0 mm 0 m/S 756 mmHg 90%
05:00 +25°C° 0 mm 0 m/S 756 mmHg 88%
06:00 +26°C° 0 mm 0 m/S 756 mmHg 87%
07:00 +26°C° 0 mm 0 m/S 756 mmHg 85%
08:00 +28°C° 0 mm 0 m/S 756 mmHg 77%
09:00 +32°C° 0 mm 1 m/S 756 mmHg 68%
10:00 +34°C° 0 mm 1 m/S 756 mmHg 59%
11:00 +34°C° 0 mm 1 m/S 756 mmHg 57%
12:00 +35°C° 0 mm 1 m/S 755 mmHg 54%
13:00 +36°C° 0 mm 2 m/S 755 mmHg 52%
14:00 +36°C° 0.1 mm 2 m/S 754 mmHg 55%
15:00 +35°C° 0.1 mm 2 m/S 754 mmHg 58%
16:00 +35°C° 0.1 mm 2 m/S 753 mmHg 62%
17:00 +32°C° 0.5 mm 2 m/S 754 mmHg 70%
18:00 +30°C° 0.5 mm 2 m/S 754 mmHg 78%
19:00 +28°C° 0.5 mm 2 m/S 754 mmHg 86%
20:00 +28°C° 0 mm 2 m/S 754 mmHg 87%
21:00 +28°C° 0 mm 1 m/S 755 mmHg 89%
22:00 +27°C° 0 mm 1 m/S 756 mmHg 90%
23:00 +27°C° 0 mm 1 m/S 755 mmHg 90%

übermorgen, 9 Juli, Donnerstag

Zeit Temperatur Niederschläge Wind Luftdruck Luftfeuchtigkeit
00:00 +27°C° 0 mm 1 m/S 755 mmHg 90%
01:00 +27°C° 0 mm 1 m/S 755 mmHg 90%
02:00 +27°C° 0 mm 1 m/S 755 mmHg 91%
03:00 +27°C° 0 mm 1 m/S 754 mmHg 91%
04:00 +26°C° 0 mm 1 m/S 754 mmHg 92%
05:00 +27°C° 0 mm 1 m/S 754 mmHg 91%
06:00 +25°C° 0 mm 0 m/S 755 mmHg 90%
07:00 +26°C° 0 mm 0 m/S 755 mmHg 89%
08:00 +28°C° 0 mm 0 m/S 755 mmHg 81%
09:00 +31°C° 0 mm 1 m/S 755 mmHg 73%
10:00 +33°C° 0 mm 1 m/S 755 mmHg 65%
11:00 +34°C° 0.2 mm 1 m/S 755 mmHg 63%
12:00 +35°C° 0.2 mm 1 m/S 754 mmHg 61%
13:00 +35°C° 0.2 mm 1 m/S 754 mmHg 59%
14:00 +35°C° 1.1 mm 1 m/S 753 mmHg 61%
15:00 +34°C° 1.1 mm 1 m/S 753 mmHg 63%
16:00 +33°C° 1.1 mm 1 m/S 752 mmHg 66%
17:00 +32°C° 0 mm 1 m/S 752 mmHg 71%
18:00 +31°C° 0 mm 1 m/S 753 mmHg 77%
19:00 +29°C° 0 mm 1 m/S 753 mmHg 82%
20:00 +29°C° 0 mm 2 m/S 754 mmHg 84%
21:00 +29°C° 0 mm 2 m/S 754 mmHg 86%
22:00 +28°C° 0 mm 2 m/S 755 mmHg 88%
23:00 +28°C° 0.2 mm 2 m/S 755 mmHg 89%

10 Juli, Freitag

Zeit Temperatur Niederschläge Wind Luftdruck Luftfeuchtigkeit
00:00 +28°C° 0.2 mm 2 m/S 755 mmHg 90%
01:00 +28°C° 0.2 mm 1 m/S 755 mmHg 91%
02:00 +27°C° 0.1 mm 1 m/S 754 mmHg 92%
03:00 +27°C° 0.1 mm 1 m/S 754 mmHg 92%
04:00 +27°C° 0.1 mm 1 m/S 754 mmHg 93%
05:00 +27°C° 0 mm 1 m/S 754 mmHg 91%
06:00 +28°C° 0 mm 1 m/S 754 mmHg 90%
07:00 +28°C° 0 mm 1 m/S 755 mmHg 88%
08:00 +30°C° 0 mm 1 m/S 755 mmHg 79%
09:00 +32°C° 0 mm 1 m/S 755 mmHg 70%
10:00 +34°C° 0 mm 1 m/S 755 mmHg 61%
11:00 +34°C° 0 mm 1 m/S 755 mmHg 57%
12:00 +35°C° 0 mm 1 m/S 755 mmHg 54%
13:00 +37°C° 0 mm 2 m/S 754 mmHg 51%
14:00 +36°C° 0.6 mm 2 m/S 754 mmHg 58%
15:00 +35°C° 0.6 mm 2 m/S 753 mmHg 64%
16:00 +34°C° 0.6 mm 2 m/S 753 mmHg 71%
17:00 +31°C° 0.3 mm 2 m/S 753 mmHg 77%
18:00 +30°C° 0.3 mm 2 m/S 754 mmHg 82%
19:00 +29°C° 0.3 mm 2 m/S 754 mmHg 87%
20:00 +28°C° 0 mm 2 m/S 755 mmHg 88%
21:00 +28°C° 0 mm 2 m/S 755 mmHg 89%
22:00 +28°C° 0 mm 2 m/S 756 mmHg 90%
23:00 +27°C° 0 mm 1 m/S 756 mmHg 91%

11 Juli, Samstag

Zeit Temperatur Niederschläge Wind Luftdruck Luftfeuchtigkeit
00:00 +27°C° 0 mm 1 m/S 755 mmHg 92%
01:00 +27°C° 0 mm 1 m/S 755 mmHg 92%
02:00 +27°C° 0 mm 1 m/S 755 mmHg 93%
03:00 +27°C° 0 mm 1 m/S 754 mmHg 93%
04:00 +27°C° 0 mm 1 m/S 754 mmHg 93%
05:00 +27°C° 0 mm 1 m/S 755 mmHg 91%
06:00 +28°C° 0 mm 1 m/S 755 mmHg 89%
07:00 +28°C° 0 mm 1 m/S 755 mmHg 88%
08:00 +30°C° 0 mm 1 m/S 756 mmHg 79%
09:00 +31°C° 0 mm 1 m/S 756 mmHg 70%
10:00 +34°C° 0 mm 2 m/S 756 mmHg 62%
11:00 +35°C° 0 mm 2 m/S 755 mmHg 59%
12:00 +36°C° 0 mm 2 m/S 755 mmHg 56%
13:00 +36°C° 0 mm 2 m/S 754 mmHg 53%
14:00 +35°C° 0.8 mm 2 m/S 754 mmHg 58%
15:00 +35°C° 0.8 mm 2 m/S 754 mmHg 63%
16:00 +33°C° 0.8 mm 1 m/S 753 mmHg 68%
17:00 +31°C° 1.1 mm 1 m/S 754 mmHg 75%
18:00 +30°C° 1.1 mm 2 m/S 755 mmHg 82%
19:00 +28°C° 1.1 mm 2 m/S 755 mmHg 89%
20:00 +28°C° 0.1 mm 2 m/S 756 mmHg 90%
21:00 +28°C° 0.1 mm 1 m/S 756 mmHg 91%
22:00 +27°C° 0.1 mm 1 m/S 757 mmHg 91%
23:00 +27°C° 0.1 mm 1 m/S 756 mmHg 92%

12 Juli, Sonntag

Zeit Temperatur Niederschläge Wind Luftdruck Luftfeuchtigkeit
00:00 +27°C° 0.1 mm 1 m/S 756 mmHg 92%
01:00 +27°C° 0.1 mm 1 m/S 756 mmHg 93%
02:00 +27°C° 0 mm 1 m/S 755 mmHg 92%
03:00 +27°C° 0 mm 1 m/S 755 mmHg 92%
04:00 +26°C° 0 mm 1 m/S 755 mmHg 92%
05:00 +27°C° 0 mm 1 m/S 755 mmHg 91%
06:00 +27°C° 0 mm 1 m/S 755 mmHg 89%
07:00 +26°C° 0 mm 0 m/S 755 mmHg 88%
08:00 +29°C° 0 mm 1 m/S 756 mmHg 80%
09:00 +31°C° 0 mm 1 m/S 756 mmHg 73%
10:00 +32°C° 0 mm 2 m/S 756 mmHg 65%
11:00 +34°C° 0.1 mm 2 m/S 755 mmHg 62%
12:00 +35°C° 0.1 mm 2 m/S 755 mmHg 59%
13:00 +36°C° 0.1 mm 2 m/S 754 mmHg 56%
14:00 +34°C° 2.1 mm 2 m/S 754 mmHg 64%
15:00 +32°C° 2.1 mm 2 m/S 754 mmHg 71%
16:00 +31°C° 2.1 mm 2 m/S 753 mmHg 79%
17:00 +30°C° 0.7 mm 2 m/S 754 mmHg 83%
18:00 +29°C° 0.7 mm 2 m/S 754 mmHg 86%
19:00 +27°C° 0.7 mm 2 m/S 755 mmHg 90%
20:00 +27°C° 0 mm 2 m/S 755 mmHg 91%
21:00 +27°C° 0 mm 2 m/S 756 mmHg 93%
22:00 +27°C° 0 mm 1 m/S 756 mmHg 94%
23:00 +26°C° 0 mm 1 m/S 756 mmHg 94%
Mehr zeigen